When you browse on this site, cookies collect data to enhance your experience and personalize the content and advertising you see.
Visit our Privacy Policy to learn more. By continuing to use the site, you agree to this use of cookies and data.
  • In Schweiz
  • Länderverzeichnis
  • Für 7 Tage
  • Wassertemperatur
  • Satellitenkarten
  • Wetterkarte
  • Widgets
  • user-avatar
    Anmelden

    Stündliche Wetter Townsville

    Heute, 23 April, Dienstag

    Zeit Temperatur Niederschläge Wind Luftdruck Luftfeuchtigkeit
    00:00 +25°C° 0 mm 4 m/S 755 mmHg 89%
    01:00 +25°C° 0 mm 4 m/S 755 mmHg 90%
    02:00 +25°C° 0.1 mm 4 m/S 754 mmHg 90%
    03:00 +23°C° 0.1 mm 4 m/S 754 mmHg 90%
    04:00 +23°C° 0 mm 4 m/S 754 mmHg 90%
    05:00 +23°C° 0 mm 4 m/S 754 mmHg 90%
    06:00 +23°C° 0 mm 4 m/S 755 mmHg 90%
    07:00 +23°C° 0 mm 4 m/S 755 mmHg 89%
    08:00 +26°C° 0 mm 4 m/S 755 mmHg 83%
    09:00 +27°C° 0 mm 4 m/S 755 mmHg 76%
    10:00 +29°C° 0 mm 5 m/S 755 mmHg 69%
    11:00 +29°C° 0.4 mm 5 m/S 755 mmHg 68%
    12:00 +30°C° 0.4 mm 5 m/S 754 mmHg 66%
    13:00 +32°C° 0.4 mm 5 m/S 754 mmHg 64%
    14:00 +30°C° 0.4 mm 5 m/S 754 mmHg 66%
    15:00 +30°C° 0.4 mm 5 m/S 753 mmHg 68%
    16:00 +29°C° 0.4 mm 5 m/S 753 mmHg 70%
    17:00 +28°C° 0.4 mm 5 m/S 753 mmHg 75%
    18:00 +27°C° 0.4 mm 5 m/S 754 mmHg 80%
    19:00 +26°C° 0.4 mm 4 m/S 754 mmHg 85%
    20:00 +26°C° 0.9 mm 4 m/S 754 mmHg 86%
    21:00 +26°C° 0.9 mm 5 m/S 754 mmHg 87%
    22:00 +26°C° 0.9 mm 5 m/S 755 mmHg 88%
    23:00 +25°C° 0.7 mm 5 m/S 754 mmHg 89%

    Morgen, 24 April, Mittwoch

    Zeit Temperatur Niederschläge Wind Luftdruck Luftfeuchtigkeit
    00:00 +25°C° 0.7 mm 5 m/S 754 mmHg 90%
    01:00 +25°C° 0.7 mm 4 m/S 754 mmHg 92%
    02:00 +25°C° 0.1 mm 5 m/S 754 mmHg 91%
    03:00 +25°C° 0.1 mm 5 m/S 753 mmHg 91%
    04:00 +25°C° 0.1 mm 5 m/S 753 mmHg 90%
    05:00 +25°C° 0 mm 5 m/S 753 mmHg 90%
    06:00 +25°C° 0 mm 5 m/S 754 mmHg 90%
    07:00 +25°C° 0 mm 5 m/S 754 mmHg 90%
    08:00 +26°C° 0.1 mm 5 m/S 754 mmHg 85%
    09:00 +27°C° 0.1 mm 5 m/S 755 mmHg 80%
    10:00 +28°C° 0.1 mm 5 m/S 755 mmHg 75%
    11:00 +29°C° 0.3 mm 5 m/S 754 mmHg 73%
    12:00 +30°C° 0.3 mm 5 m/S 754 mmHg 70%
    13:00 +30°C° 0.3 mm 5 m/S 753 mmHg 68%
    14:00 +30°C° 0.3 mm 5 m/S 753 mmHg 70%
    15:00 +29°C° 0.3 mm 5 m/S 752 mmHg 72%
    16:00 +29°C° 0.3 mm 5 m/S 752 mmHg 74%
    17:00 +28°C° 0.1 mm 5 m/S 752 mmHg 78%
    18:00 +27°C° 0.1 mm 5 m/S 753 mmHg 82%
    19:00 +26°C° 0.1 mm 5 m/S 753 mmHg 87%
    20:00 +26°C° 0.2 mm 5 m/S 754 mmHg 88%
    21:00 +26°C° 0.2 mm 5 m/S 754 mmHg 89%
    22:00 +26°C° 0.2 mm 5 m/S 755 mmHg 90%
    23:00 +26°C° 0.5 mm 5 m/S 754 mmHg 89%

    übermorgen, 25 April, Donnerstag

    Zeit Temperatur Niederschläge Wind Luftdruck Luftfeuchtigkeit
    00:00 +26°C° 0.5 mm 5 m/S 754 mmHg 89%
    01:00 +26°C° 0.5 mm 5 m/S 754 mmHg 89%
    02:00 +26°C° 0.4 mm 5 m/S 753 mmHg 89%
    03:00 +26°C° 0.4 mm 5 m/S 753 mmHg 89%
    04:00 +25°C° 0.4 mm 5 m/S 753 mmHg 89%
    05:00 +25°C° 0.1 mm 5 m/S 753 mmHg 89%
    06:00 +25°C° 0.1 mm 5 m/S 753 mmHg 89%
    07:00 +25°C° 0.1 mm 5 m/S 753 mmHg 89%
    08:00 +26°C° 0.1 mm 5 m/S 754 mmHg 85%
    09:00 +27°C° 0.1 mm 6 m/S 754 mmHg 82%
    10:00 +28°C° 0.1 mm 6 m/S 754 mmHg 79%
    11:00 +28°C° 0.7 mm 6 m/S 754 mmHg 78%
    12:00 +28°C° 0.7 mm 6 m/S 753 mmHg 77%
    13:00 +29°C° 0.7 mm 6 m/S 753 mmHg 76%
    14:00 +28°C° 0.6 mm 6 m/S 752 mmHg 77%
    15:00 +28°C° 0.6 mm 6 m/S 752 mmHg 78%
    16:00 +28°C° 0.6 mm 6 m/S 752 mmHg 79%
    17:00 +27°C° 0.4 mm 5 m/S 752 mmHg 82%
    18:00 +26°C° 0.4 mm 5 m/S 753 mmHg 85%
    19:00 +26°C° 0.4 mm 5 m/S 753 mmHg 89%
    20:00 +26°C° 0.1 mm 5 m/S 754 mmHg 89%
    21:00 +26°C° 0.1 mm 5 m/S 754 mmHg 90%
    22:00 +25°C° 0.1 mm 5 m/S 754 mmHg 90%
    23:00 +25°C° 0.2 mm 5 m/S 754 mmHg 90%

    26 April, Freitag

    Zeit Temperatur Niederschläge Wind Luftdruck Luftfeuchtigkeit
    00:00 +25°C° 0.2 mm 5 m/S 754 mmHg 90%
    01:00 +25°C° 0.2 mm 5 m/S 754 mmHg 90%
    02:00 +25°C° 0.2 mm 5 m/S 753 mmHg 90%
    03:00 +25°C° 0.2 mm 5 m/S 753 mmHg 91%
    04:00 +25°C° 0.2 mm 5 m/S 753 mmHg 91%
    05:00 +25°C° 0.1 mm 5 m/S 753 mmHg 90%
    06:00 +25°C° 0.1 mm 5 m/S 753 mmHg 90%
    07:00 +25°C° 0.1 mm 5 m/S 754 mmHg 90%
    08:00 +26°C° 0.2 mm 5 m/S 754 mmHg 87%
    09:00 +26°C° 0.2 mm 5 m/S 754 mmHg 83%
    10:00 +27°C° 0.2 mm 5 m/S 755 mmHg 80%
    11:00 +28°C° 0.8 mm 5 m/S 754 mmHg 79%
    12:00 +28°C° 0.8 mm 5 m/S 753 mmHg 78%
    13:00 +28°C° 0.8 mm 5 m/S 753 mmHg 77%
    14:00 +28°C° 0.6 mm 5 m/S 753 mmHg 78%
    15:00 +28°C° 0.6 mm 5 m/S 752 mmHg 79%
    16:00 +28°C° 0.6 mm 5 m/S 752 mmHg 79%
    17:00 +27°C° 0.5 mm 5 m/S 753 mmHg 82%
    18:00 +26°C° 0.5 mm 5 m/S 753 mmHg 86%
    19:00 +26°C° 0.5 mm 4 m/S 754 mmHg 89%
    20:00 +26°C° 0.7 mm 5 m/S 754 mmHg 88%
    21:00 +26°C° 0.7 mm 5 m/S 755 mmHg 88%
    22:00 +26°C° 0.7 mm 5 m/S 755 mmHg 88%
    23:00 +25°C° 0.2 mm 5 m/S 755 mmHg 88%

    27 April, Samstag

    Zeit Temperatur Niederschläge Wind Luftdruck Luftfeuchtigkeit
    00:00 +25°C° 0.2 mm 5 m/S 754 mmHg 89%
    01:00 +25°C° 0.2 mm 5 m/S 754 mmHg 90%
    02:00 +25°C° 0.1 mm 5 m/S 754 mmHg 90%
    03:00 +23°C° 0.1 mm 5 m/S 754 mmHg 91%
    04:00 +23°C° 0.1 mm 5 m/S 754 mmHg 92%
    05:00 +23°C° 0 mm 5 m/S 754 mmHg 91%
    06:00 +23°C° 0 mm 5 m/S 755 mmHg 91%
    07:00 +23°C° 0 mm 5 m/S 755 mmHg 91%
    08:00 +26°C° 0 mm 6 m/S 755 mmHg 84%
    09:00 +27°C° 0 mm 6 m/S 756 mmHg 77%
    10:00 +28°C° 0 mm 6 m/S 756 mmHg 70%
    11:00 +29°C° 0 mm 6 m/S 755 mmHg 66%
    12:00 +30°C° 0 mm 6 m/S 755 mmHg 62%
    13:00 +32°C° 0 mm 6 m/S 754 mmHg 58%
    14:00 +30°C° 0 mm 6 m/S 754 mmHg 59%
    15:00 +30°C° 0 mm 6 m/S 754 mmHg 60%
    16:00 +30°C° 0 mm 6 m/S 754 mmHg 62%
    17:00 +28°C° 0 mm 6 m/S 754 mmHg 66%
    18:00 +27°C° 0 mm 6 m/S 755 mmHg 70%
    19:00 +26°C° 0 mm 6 m/S 755 mmHg 75%
    20:00 +26°C° 0 mm 5 m/S 756 mmHg 76%
    21:00 +25°C° 0 mm 5 m/S 756 mmHg 76%
    22:00 +25°C° 0 mm 5 m/S 756 mmHg 77%
    23:00 +25°C° 0 mm 5 m/S 756 mmHg 78%

    28 April, Sonntag

    Zeit Temperatur Niederschläge Wind Luftdruck Luftfeuchtigkeit
    00:00 +23°C° 0 mm 5 m/S 755 mmHg 79%
    01:00 +23°C° 0 mm 5 m/S 755 mmHg 80%
    02:00 +23°C° 0 mm 4 m/S 755 mmHg 81%
    03:00 +22°C° 0 mm 4 m/S 755 mmHg 83%
    04:00 +22°C° 0 mm 4 m/S 755 mmHg 84%
    05:00 +22°C° 0 mm 4 m/S 755 mmHg 84%
    06:00 +22°C° 0 mm 4 m/S 756 mmHg 85%
    07:00 +22°C° 0 mm 5 m/S 756 mmHg 85%
    08:00 +25°C° 0 mm 5 m/S 756 mmHg 78%
    09:00 +26°C° 0 mm 5 m/S 756 mmHg 71%
    10:00 +28°C° 0 mm 5 m/S 757 mmHg 64%
    11:00 +28°C° 0 mm 6 m/S 756 mmHg 61%
    12:00 +29°C° 0 mm 6 m/S 755 mmHg 58%
    13:00 +30°C° 0 mm 6 m/S 755 mmHg 54%
    14:00 +30°C° 0 mm 6 m/S 755 mmHg 55%
    15:00 +29°C° 0 mm 6 m/S 754 mmHg 55%
    16:00 +29°C° 0 mm 6 m/S 754 mmHg 55%
    17:00 +28°C° 0 mm 6 m/S 755 mmHg 60%
    18:00 +27°C° 0 mm 6 m/S 755 mmHg 65%
    19:00 +25°C° 0 mm 5 m/S 755 mmHg 70%
    20:00 +25°C° 0 mm 5 m/S 756 mmHg 71%
    21:00 +25°C° 0 mm 5 m/S 756 mmHg 72%
    22:00 +24°C° 0 mm 6 m/S 756 mmHg 73%
    23:00 +23°C° 0 mm 5 m/S 756 mmHg 75%
    Mehr zeigen